Year,Month,Day,Hour,Minute,Value (Times are PST for temperature in C)
2006,09,23,00,00,8.80
2006,09,23,00,01,8.80
2006,09,23,00,02,8.80
2006,09,23,00,03,8.80
2006,09,23,00,04,8.80
2006,09,23,00,05,8.80
2006,09,23,00,06,8.80
2006,09,23,00,07,8.80
2006,09,23,00,08,8.80
2006,09,23,00,09,8.70
2006,09,23,00,10,8.70
2006,09,23,00,11,8.70
2006,09,23,00,12,8.70
2006,09,23,00,13,8.70
2006,09,23,00,14,8.70
2006,09,23,00,15,8.70
2006,09,23,00,16,8.70
2006,09,23,00,17,8.70
2006,09,23,00,18,8.70
2006,09,23,00,19,8.70
2006,09,23,00,20,8.70
2006,09,23,00,21,8.70
2006,09,23,00,22,8.70
2006,09,23,00,23,8.70
2006,09,23,00,24,8.70
2006,09,23,00,25,8.70
2006,09,23,00,26,8.70
2006,09,23,00,27,8.70
2006,09,23,00,28,8.70
2006,09,23,00,29,8.70
2006,09,23,00,30,8.70
2006,09,23,00,31,8.70
2006,09,23,00,32,8.70
2006,09,23,00,33,8.70
2006,09,23,00,34,8.70
2006,09,23,00,35,8.70
2006,09,23,00,36,8.70
2006,09,23,00,37,8.70
2006,09,23,00,38,8.70
2006,09,23,00,39,8.70
2006,09,23,00,40,8.70
2006,09,23,00,41,8.70
2006,09,23,00,42,8.70
2006,09,23,00,43,8.70
2006,09,23,00,44,8.70
2006,09,23,00,45,8.70
2006,09,23,00,46,8.70
2006,09,23,00,47,8.70
2006,09,23,00,48,8.70
2006,09,23,00,49,8.70
2006,09,23,00,50,8.70
2006,09,23,00,51,8.60
2006,09,23,00,52,8.60
2006,09,23,00,53,8.60
2006,09,23,00,54,8.60
2006,09,23,00,55,8.50
2006,09,23,00,56,8.50
2006,09,23,00,57,8.50
2006,09,23,00,58,8.50
2006,09,23,00,59,8.50
2006,09,23,01,00,8.50
2006,09,23,01,01,8.50
2006,09,23,01,02,8.50
2006,09,23,01,03,8.50
2006,09,23,01,04,8.50
2006,09,23,01,05,8.50
2006,09,23,01,06,8.40
2006,09,23,01,07,8.40
2006,09,23,01,08,8.40
2006,09,23,01,09,8.40
2006,09,23,01,10,8.40
2006,09,23,01,11,8.40
2006,09,23,01,12,8.40
2006,09,23,01,13,8.40
2006,09,23,01,14,8.40
2006,09,23,01,15,8.30
2006,09,23,01,16,8.30
2006,09,23,01,17,8.30
2006,09,23,01,18,8.30
2006,09,23,01,19,8.30
2006,09,23,01,20,8.20
2006,09,23,01,21,8.20
2006,09,23,01,22,8.20
2006,09,23,01,23,8.20
2006,09,23,01,24,8.20
2006,09,23,01,25,8.20
2006,09,23,01,26,8.20
2006,09,23,01,27,8.20
2006,09,23,01,28,8.20
2006,09,23,01,29,8.20
2006,09,23,01,30,8.20
2006,09,23,01,31,8.20
2006,09,23,01,32,8.20
2006,09,23,01,33,8.20
2006,09,23,01,34,8.20
2006,09,23,01,35,8.20
2006,09,23,01,36,8.20
2006,09,23,01,37,8.20
2006,09,23,01,38,8.20
2006,09,23,01,39,8.20
2006,09,23,01,40,8.20
2006,09,23,01,41,8.20
2006,09,23,01,42,8.20
2006,09,23,01,43,8.20
2006,09,23,01,44,8.20
2006,09,23,01,45,8.20
2006,09,23,01,46,8.20
2006,09,23,01,47,8.20
2006,09,23,01,48,8.20
2006,09,23,01,49,8.20
2006,09,23,01,50,8.20
2006,09,23,01,51,8.10
2006,09,23,01,52,8.10
2006,09,23,01,53,8.10
2006,09,23,01,54,8.10
2006,09,23,01,55,8.10
2006,09,23,01,56,8.10
2006,09,23,01,57,8.10
2006,09,23,01,58,8.10
2006,09,23,01,59,8.00
2006,09,23,02,00,8.00
2006,09,23,02,01,8.00
2006,09,23,02,02,8.00
2006,09,23,02,03,7.90
2006,09,23,02,04,7.90
2006,09,23,02,05,7.90
2006,09,23,02,06,7.90
2006,09,23,02,07,7.90
2006,09,23,02,08,7.90
2006,09,23,02,09,7.80
2006,09,23,02,10,7.80
2006,09,23,02,11,7.80
2006,09,23,02,12,7.80
2006,09,23,02,13,7.80
2006,09,23,02,14,7.80
2006,09,23,02,15,7.80
2006,09,23,02,16,7.80
2006,09,23,02,17,7.80
2006,09,23,02,18,7.80
2006,09,23,02,19,7.80
2006,09,23,02,20,7.80
2006,09,23,02,21,7.80
2006,09,23,02,22,7.80
2006,09,23,02,23,7.80
2006,09,23,02,24,7.80
2006,09,23,02,25,7.80
2006,09,23,02,26,7.80
2006,09,23,02,27,7.80
2006,09,23,02,28,7.80
2006,09,23,02,29,7.80
2006,09,23,02,30,7.80
2006,09,23,02,31,7.80
2006,09,23,02,32,7.80
2006,09,23,02,33,7.80
2006,09,23,02,34,7.80
2006,09,23,02,35,7.80
2006,09,23,02,36,7.80
2006,09,23,02,37,7.80
2006,09,23,02,38,7.80
2006,09,23,02,39,7.80
2006,09,23,02,40,7.70
2006,09,23,02,41,7.70
2006,09,23,02,42,7.70
2006,09,23,02,43,7.70
2006,09,23,02,44,7.70
2006,09,23,02,45,7.70
2006,09,23,02,46,7.70
2006,09,23,02,47,7.70
2006,09,23,02,48,7.70
2006,09,23,02,49,7.70
2006,09,23,02,50,7.70
2006,09,23,02,51,7.70
2006,09,23,02,52,7.60
2006,09,23,02,53,7.60
2006,09,23,02,54,7.60
2006,09,23,02,55,7.60
2006,09,23,02,56,7.60
2006,09,23,02,57,7.60
2006,09,23,02,58,7.60
2006,09,23,02,59,7.60
2006,09,23,03,00,7.50
2006,09,23,03,01,7.50
2006,09,23,03,02,7.50
2006,09,23,03,03,7.50
2006,09,23,03,04,7.50
2006,09,23,03,05,7.50
2006,09,23,03,06,7.50
2006,09,23,03,07,7.50
2006,09,23,03,08,7.50
2006,09,23,03,09,7.50
2006,09,23,03,10,7.50
2006,09,23,03,11,7.40
2006,09,23,03,12,7.40
2006,09,23,03,13,7.40
2006,09,23,03,14,7.40
2006,09,23,03,15,7.40
2006,09,23,03,16,7.40
2006,09,23,03,17,7.40
2006,09,23,03,18,7.40
2006,09,23,03,19,7.40
2006,09,23,03,20,7.40
2006,09,23,03,21,7.40
2006,09,23,03,22,7.40
2006,09,23,03,23,7.40
2006,09,23,03,24,7.40
2006,09,23,03,25,7.40
2006,09,23,03,26,7.40
2006,09,23,03,27,7.40
2006,09,23,03,28,7.50
2006,09,23,03,29,7.50
2006,09,23,03,30,7.50
2006,09,23,03,31,7.50
2006,09,23,03,32,7.50
2006,09,23,03,33,7.50
2006,09,23,03,34,7.40
2006,09,23,03,35,7.40
2006,09,23,03,36,7.40
2006,09,23,03,37,7.40
2006,09,23,03,38,7.40
2006,09,23,03,39,7.40
2006,09,23,03,40,7.50
2006,09,23,03,41,7.50
2006,09,23,03,42,7.50
2006,09,23,03,43,7.50
2006,09,23,03,44,7.50
2006,09,23,03,45,7.50
2006,09,23,03,46,7.50
2006,09,23,03,47,7.50
2006,09,23,03,48,7.50
2006,09,23,03,49,7.50
2006,09,23,03,50,7.40
2006,09,23,03,51,7.40
2006,09,23,03,52,7.40
2006,09,23,03,53,7.40
2006,09,23,03,54,7.40
2006,09,23,03,55,7.40
2006,09,23,03,56,7.40
2006,09,23,03,57,7.40
2006,09,23,03,58,7.30
2006,09,23,03,59,7.30
2006,09,23,04,00,7.30
2006,09,23,04,01,7.30
2006,09,23,04,02,7.30
2006,09,23,04,03,7.30
2006,09,23,04,04,7.30
2006,09,23,04,05,7.30
2006,09,23,04,06,7.30
2006,09,23,04,07,7.30
2006,09,23,04,08,7.30
2006,09,23,04,09,7.30
2006,09,23,04,10,7.30
2006,09,23,04,11,7.30
2006,09,23,04,12,7.30
2006,09,23,04,13,7.30
2006,09,23,04,14,7.20
2006,09,23,04,15,7.20
2006,09,23,04,16,7.20
2006,09,23,04,17,7.20
2006,09,23,04,18,7.20
2006,09,23,04,19,7.20
2006,09,23,04,20,7.20
2006,09,23,04,21,7.20
2006,09,23,04,22,7.20
2006,09,23,04,23,7.30
2006,09,23,04,24,7.30
2006,09,23,04,25,7.30
2006,09,23,04,26,7.30
2006,09,23,04,27,7.30
2006,09,23,04,28,7.20
2006,09,23,04,29,7.20
2006,09,23,04,30,7.20
2006,09,23,04,31,7.20
2006,09,23,04,32,7.20
2006,09,23,04,33,7.20
2006,09,23,04,34,7.20
2006,09,23,04,35,7.20
2006,09,23,04,36,7.20
2006,09,23,04,37,7.20
2006,09,23,04,38,7.20
2006,09,23,04,39,7.20
2006,09,23,04,40,7.20
2006,09,23,04,41,7.20
2006,09,23,04,42,7.20
2006,09,23,04,43,7.20
2006,09,23,04,44,7.30
2006,09,23,04,45,7.30
2006,09,23,04,46,7.30
2006,09,23,04,47,7.30
2006,09,23,04,48,7.30
2006,09,23,04,49,7.30
2006,09,23,04,50,7.30
2006,09,23,04,51,7.30
2006,09,23,04,52,7.30
2006,09,23,04,53,7.30
2006,09,23,04,54,7.30
2006,09,23,04,55,7.30
2006,09,23,04,56,7.30
2006,09,23,04,57,7.20
2006,09,23,04,58,7.20
2006,09,23,04,59,7.20
2006,09,23,05,00,7.20
2006,09,23,05,01,7.20
2006,09,23,05,02,7.20
2006,09,23,05,03,7.20
2006,09,23,05,04,7.20
2006,09,23,05,05,7.20
2006,09,23,05,06,7.20
2006,09,23,05,07,7.20
2006,09,23,05,08,7.10
2006,09,23,05,09,7.10
2006,09,23,05,10,7.10
2006,09,23,05,11,7.10
2006,09,23,05,12,7.10
2006,09,23,05,13,7.10
2006,09,23,05,14,7.10
2006,09,23,05,15,7.00
2006,09,23,05,16,7.00
2006,09,23,05,17,7.00
2006,09,23,05,18,7.00
2006,09,23,05,19,7.00
2006,09,23,05,20,6.90
2006,09,23,05,21,6.90
2006,09,23,05,22,6.90
2006,09,23,05,23,6.90
2006,09,23,05,24,6.90
2006,09,23,05,25,6.90
2006,09,23,05,26,6.90
2006,09,23,05,27,6.90
2006,09,23,05,28,6.90
2006,09,23,05,29,6.90
2006,09,23,05,30,6.90
2006,09,23,05,31,6.90
2006,09,23,05,32,6.90
2006,09,23,05,33,6.90
2006,09,23,05,34,6.90
2006,09,23,05,35,6.80
2006,09,23,05,36,6.80
2006,09,23,05,37,6.80
2006,09,23,05,38,6.80
2006,09,23,05,39,6.80
2006,09,23,05,40,6.80
2006,09,23,05,41,6.80
2006,09,23,05,42,6.80
2006,09,23,05,43,6.90
2006,09,23,05,44,6.90
2006,09,23,05,45,6.90
2006,09,23,05,46,6.90
2006,09,23,05,47,6.90
2006,09,23,05,48,6.90
2006,09,23,05,49,6.90
2006,09,23,05,50,6.90
2006,09,23,05,51,6.90
2006,09,23,05,52,6.90
2006,09,23,05,53,6.90
2006,09,23,05,54,6.80
2006,09,23,05,55,6.80
2006,09,23,05,56,6.80
2006,09,23,05,57,6.80
2006,09,23,05,58,6.80
2006,09,23,05,59,6.80
2006,09,23,06,00,6.80
2006,09,23,06,01,6.80
2006,09,23,06,02,6.80
2006,09,23,06,03,6.80
2006,09,23,06,04,6.80
2006,09,23,06,05,6.80
2006,09,23,06,06,6.80
2006,09,23,06,07,6.80
2006,09,23,06,08,6.80
2006,09,23,06,09,6.80
2006,09,23,06,10,6.80
2006,09,23,06,11,6.80
2006,09,23,06,12,6.80
2006,09,23,06,13,6.70
2006,09,23,06,14,6.70
2006,09,23,06,15,6.70
2006,09,23,06,16,6.70
2006,09,23,06,17,6.70
2006,09,23,06,18,6.80
2006,09,23,06,19,6.80
2006,09,23,06,20,6.80
2006,09,23,06,21,6.80
2006,09,23,06,22,6.80
2006,09,23,06,23,6.80
2006,09,23,06,24,6.80
2006,09,23,06,25,6.80
2006,09,23,06,26,6.80
2006,09,23,06,27,6.80
2006,09,23,06,28,6.80
2006,09,23,06,29,6.80
2006,09,23,06,30,6.80
2006,09,23,06,31,6.80
2006,09,23,06,32,6.80
2006,09,23,06,33,6.80
2006,09,23,06,34,6.80
2006,09,23,06,35,6.80
2006,09,23,06,36,6.80
2006,09,23,06,37,6.80
2006,09,23,06,38,6.80
2006,09,23,06,39,6.70
2006,09,23,06,40,6.70
2006,09,23,06,41,6.70
2006,09,23,06,42,6.70
2006,09,23,06,43,6.70
2006,09,23,06,44,6.70
2006,09,23,06,45,6.70
2006,09,23,06,46,6.70
2006,09,23,06,47,6.70
2006,09,23,06,48,6.70
2006,09,23,06,49,6.70
2006,09,23,06,50,6.70
2006,09,23,06,51,6.70
2006,09,23,06,52,6.70
2006,09,23,06,53,6.70
2006,09,23,06,54,6.70
2006,09,23,06,55,6.70
2006,09,23,06,56,6.70
2006,09,23,06,57,6.70
2006,09,23,06,58,6.70
2006,09,23,06,59,6.70
2006,09,23,07,00,6.70
2006,09,23,07,01,6.70
2006,09,23,07,02,6.70
2006,09,23,07,03,6.70
2006,09,23,07,04,6.70
2006,09,23,07,05,6.70
2006,09,23,07,06,6.70
2006,09,23,07,07,6.70
2006,09,23,07,08,6.70
2006,09,23,07,09,6.70
2006,09,23,07,10,6.70
2006,09,23,07,11,6.70
2006,09,23,07,12,6.70
2006,09,23,07,13,6.70
2006,09,23,07,14,6.70
2006,09,23,07,15,6.70
2006,09,23,07,16,6.70
2006,09,23,07,17,6.70
2006,09,23,07,18,6.70
2006,09,23,07,19,6.70
2006,09,23,07,20,6.70
2006,09,23,07,21,6.70
2006,09,23,07,22,6.70
2006,09,23,07,23,6.70
2006,09,23,07,24,6.60
2006,09,23,07,25,6.70
2006,09,23,07,26,6.70
2006,09,23,07,27,6.70
2006,09,23,07,28,6.70
2006,09,23,07,29,6.60
2006,09,23,07,30,6.60
2006,09,23,07,31,6.60
2006,09,23,07,32,6.60
2006,09,23,07,33,6.60
2006,09,23,07,34,6.60
2006,09,23,07,35,6.70
2006,09,23,07,36,6.70
2006,09,23,07,37,6.70
2006,09,23,07,38,6.70
2006,09,23,07,39,6.80
2006,09,23,07,40,6.80
2006,09,23,07,41,6.80
2006,09,23,07,42,6.90
2006,09,23,07,43,6.90
2006,09,23,07,44,7.00
2006,09,23,07,45,7.10
2006,09,23,07,46,7.10
2006,09,23,07,47,7.20
2006,09,23,07,48,7.20
2006,09,23,07,49,7.30
2006,09,23,07,50,7.30
2006,09,23,07,51,7.30
2006,09,23,07,52,7.30
2006,09,23,07,53,7.30
2006,09,23,07,54,7.30
2006,09,23,07,55,7.30
2006,09,23,07,56,7.40
2006,09,23,07,57,7.40
2006,09,23,07,58,7.40
2006,09,23,07,59,7.50
2006,09,23,08,00,7.50
2006,09,23,08,01,7.60
2006,09,23,08,02,7.60
2006,09,23,08,03,7.70
2006,09,23,08,04,7.80
2006,09,23,08,05,7.80
2006,09,23,08,06,7.80
2006,09,23,08,07,7.90
2006,09,23,08,08,8.00
2006,09,23,08,09,8.00
2006,09,23,08,10,8.10
2006,09,23,08,11,8.20
2006,09,23,08,12,8.20
2006,09,23,08,13,8.30
2006,09,23,08,14,8.30
2006,09,23,08,15,8.40
2006,09,23,08,16,8.50
2006,09,23,08,17,8.50
2006,09,23,08,18,8.60
2006,09,23,08,19,8.70
2006,09,23,08,20,8.80
2006,09,23,08,21,8.80
2006,09,23,08,22,9.00
2006,09,23,08,23,9.10
2006,09,23,08,24,9.20
2006,09,23,08,25,9.40
2006,09,23,08,26,9.40
2006,09,23,08,27,9.50
2006,09,23,08,28,9.60
2006,09,23,08,29,9.70
2006,09,23,08,30,9.70
2006,09,23,08,31,9.90
2006,09,23,08,32,10.00
2006,09,23,08,33,10.10
2006,09,23,08,34,10.20
2006,09,23,08,35,10.30
2006,09,23,08,36,10.30
2006,09,23,08,37,10.40
2006,09,23,08,38,10.50
2006,09,23,08,39,10.60
2006,09,23,08,40,10.70
2006,09,23,08,41,10.80
2006,09,23,08,42,10.90
2006,09,23,08,43,11.00
2006,09,23,08,44,11.10
2006,09,23,08,45,11.20
2006,09,23,08,46,11.30
2006,09,23,08,47,11.40
2006,09,23,08,48,11.60
2006,09,23,08,49,11.70
2006,09,23,08,50,11.80
2006,09,23,08,51,11.90
2006,09,23,08,52,12.00
2006,09,23,08,53,12.20
2006,09,23,08,54,12.30
2006,09,23,08,55,12.50
2006,09,23,08,56,12.60
2006,09,23,08,57,12.80
2006,09,23,08,58,12.90
2006,09,23,08,59,13.10
2006,09,23,09,00,13.20
2006,09,23,09,01,13.20
2006,09,23,09,02,13.30
2006,09,23,09,03,13.50
2006,09,23,09,04,13.60
2006,09,23,09,05,13.70
2006,09,23,09,06,13.90
2006,09,23,09,07,14.00
2006,09,23,09,08,14.10
2006,09,23,09,09,14.20
2006,09,23,09,10,14.30
2006,09,23,09,11,14.40
2006,09,23,09,12,14.60
2006,09,23,09,13,14.70
2006,09,23,09,14,14.80
2006,09,23,09,15,14.90
2006,09,23,09,16,14.90
2006,09,23,09,17,15.00
2006,09,23,09,18,15.10
2006,09,23,09,19,15.10
2006,09,23,09,20,15.20
2006,09,23,09,21,15.20
2006,09,23,09,22,15.30
2006,09,23,09,23,15.30
2006,09,23,09,24,15.30
2006,09,23,09,25,15.30
2006,09,23,09,26,15.40
2006,09,23,09,27,15.40
2006,09,23,09,28,15.40
2006,09,23,09,29,15.50
2006,09,23,09,30,15.50
2006,09,23,09,31,15.60
2006,09,23,09,32,15.60
2006,09,23,09,33,15.70
2006,09,23,09,34,15.70
2006,09,23,09,35,15.80
2006,09,23,09,36,15.80
2006,09,23,09,37,15.80
2006,09,23,09,38,15.80
2006,09,23,09,39,15.70
2006,09,23,09,40,15.70
2006,09,23,09,41,15.70
2006,09,23,09,42,15.60
2006,09,23,09,43,15.70
2006,09,23,09,44,15.70
2006,09,23,09,45,15.80
2006,09,23,09,46,15.80
2006,09,23,09,47,15.80
2006,09,23,09,48,15.80
2006,09,23,09,49,15.80
2006,09,23,09,50,15.70
2006,09,23,09,51,15.80
2006,09,23,09,52,15.80
2006,09,23,09,53,15.80
2006,09,23,09,54,15.80
2006,09,23,09,55,15.80
2006,09,23,09,56,15.90
2006,09,23,09,57,15.90
2006,09,23,09,58,16.00
2006,09,23,09,59,16.10
2006,09,23,10,00,15.90
2006,09,23,10,01,16.00
2006,09,23,10,02,16.10
2006,09,23,10,03,16.10
2006,09,23,10,04,16.10
2006,09,23,10,05,16.20
2006,09,23,10,06,16.20
2006,09,23,10,07,16.30
2006,09,23,10,08,16.30
2006,09,23,10,09,16.40
2006,09,23,10,10,16.40
2006,09,23,10,11,16.50
2006,09,23,10,12,16.60
2006,09,23,10,13,16.60
2006,09,23,10,14,16.60
2006,09,23,10,15,16.60
2006,09,23,10,16,16.60
2006,09,23,10,17,16.50
2006,09,23,10,18,16.40
2006,09,23,10,19,16.40
2006,09,23,10,20,16.40
2006,09,23,10,21,16.40
2006,09,23,10,22,16.40
2006,09,23,10,23,16.50
2006,09,23,10,24,16.60
2006,09,23,10,25,16.60
2006,09,23,10,26,16.60
2006,09,23,10,27,16.60
2006,09,23,10,28,16.60
2006,09,23,10,29,16.70
2006,09,23,10,30,16.70
2006,09,23,10,31,16.70
2006,09,23,10,32,16.80
2006,09,23,10,33,16.90
2006,09,23,10,34,17.00
2006,09,23,10,35,17.10
2006,09,23,10,36,17.20
2006,09,23,10,37,17.20
2006,09,23,10,38,17.20
2006,09,23,10,39,17.10
2006,09,23,10,40,17.10
2006,09,23,10,41,17.20
2006,09,23,10,42,17.20
2006,09,23,10,43,17.20
2006,09,23,10,44,17.30
2006,09,23,10,45,17.30
2006,09,23,10,46,17.30
2006,09,23,10,47,17.30
2006,09,23,10,48,17.30
2006,09,23,10,49,17.30
2006,09,23,10,50,17.30
2006,09,23,10,51,17.40
2006,09,23,10,52,17.50
2006,09,23,10,53,17.60
2006,09,23,10,54,17.60
2006,09,23,10,55,17.60
2006,09,23,10,56,17.70
2006,09,23,10,57,17.80
2006,09,23,10,58,17.90
2006,09,23,10,59,17.90
2006,09,23,11,00,17.90
2006,09,23,11,01,17.90
2006,09,23,11,02,17.90
2006,09,23,11,03,17.90
2006,09,23,11,04,17.80
2006,09,23,11,05,17.80
2006,09,23,11,06,17.80
2006,09,23,11,07,17.80
2006,09,23,11,08,17.80
2006,09,23,11,09,17.80
2006,09,23,11,10,17.80
2006,09,23,11,11,17.90
2006,09,23,11,12,17.90
2006,09,23,11,13,17.90
2006,09,23,11,14,17.90
2006,09,23,11,15,18.00
2006,09,23,11,16,17.90
2006,09,23,11,17,17.90
2006,09,23,11,18,17.90
2006,09,23,11,19,17.90
2006,09,23,11,20,18.00
2006,09,23,11,21,17.90
2006,09,23,11,22,17.90
2006,09,23,11,23,17.80
2006,09,23,11,24,17.80
2006,09,23,11,25,17.80
2006,09,23,11,26,17.90
2006,09,23,11,27,18.00
2006,09,23,11,28,18.10
2006,09,23,11,29,18.10
2006,09,23,11,30,18.20
2006,09,23,11,31,18.20
2006,09,23,11,32,18.20
2006,09,23,11,33,18.20
2006,09,23,11,34,18.20
2006,09,23,11,35,18.20
2006,09,23,11,36,18.20
2006,09,23,11,37,18.20
2006,09,23,11,38,18.10
2006,09,23,11,39,18.10
2006,09,23,11,40,18.10
2006,09,23,11,41,18.10
2006,09,23,11,42,18.10
2006,09,23,11,43,18.20
2006,09,23,11,44,18.20
2006,09,23,11,45,18.20
2006,09,23,11,46,18.20
2006,09,23,11,47,18.20
2006,09,23,11,48,18.20
2006,09,23,11,49,18.20
2006,09,23,11,50,18.20
2006,09,23,11,51,18.20
2006,09,23,11,52,18.10
2006,09,23,11,53,18.00
2006,09,23,11,54,18.00
2006,09,23,11,55,18.10
2006,09,23,11,56,18.00
2006,09,23,11,57,17.90
2006,09,23,11,58,17.90
2006,09,23,11,59,17.90
2006,09,23,12,00,17.90
2006,09,23,12,01,17.90
2006,09,23,12,02,17.90
2006,09,23,12,03,18.00
2006,09,23,12,04,18.10
2006,09,23,12,05,18.20
2006,09,23,12,06,18.20
2006,09,23,12,07,18.20
2006,09,23,12,08,18.30
2006,09,23,12,09,18.40
2006,09,23,12,10,18.40
2006,09,23,12,11,18.40
2006,09,23,12,12,18.30
2006,09,23,12,13,18.30
2006,09,23,12,14,18.20
2006,09,23,12,15,18.20
2006,09,23,12,16,18.20
2006,09,23,12,17,18.30
2006,09,23,12,18,18.40
2006,09,23,12,19,18.40
2006,09,23,12,20,18.50
2006,09,23,12,21,18.60
2006,09,23,12,22,18.70
2006,09,23,12,23,18.70
2006,09,23,12,24,18.80
2006,09,23,12,25,18.80
2006,09,23,12,26,18.90
2006,09,23,12,27,18.90
2006,09,23,12,28,18.90
2006,09,23,12,29,18.90
2006,09,23,12,30,18.90
2006,09,23,12,31,18.90
2006,09,23,12,32,18.90
2006,09,23,12,33,18.90
2006,09,23,12,34,19.00
2006,09,23,12,35,19.10
2006,09,23,12,36,19.10
2006,09,23,12,37,19.10
2006,09,23,12,38,19.10
2006,09,23,12,39,19.10
2006,09,23,12,40,19.10
2006,09,23,12,41,19.10
2006,09,23,12,42,19.10
2006,09,23,12,43,19.10
2006,09,23,12,44,19.20
2006,09,23,12,45,19.20
2006,09,23,12,46,19.20
2006,09,23,12,47,19.20
2006,09,23,12,48,19.10
2006,09,23,12,49,19.00
2006,09,23,12,50,19.00
2006,09,23,12,51,19.10
2006,09,23,12,52,19.30
2006,09,23,12,53,19.40
2006,09,23,12,54,19.60
2006,09,23,12,55,19.70
2006,09,23,12,56,19.70
2006,09,23,12,57,19.70
2006,09,23,12,58,19.70
2006,09,23,12,59,19.90
2006,09,23,13,00,19.90
2006,09,23,13,01,19.80
2006,09,23,13,02,19.70
2006,09,23,13,03,19.70
2006,09,23,13,04,19.70
2006,09,23,13,05,19.70
2006,09,23,13,06,19.60
2006,09,23,13,07,19.50
2006,09,23,13,08,19.50
2006,09,23,13,09,19.50
2006,09,23,13,10,19.60
2006,09,23,13,11,19.60
2006,09,23,13,12,19.80
2006,09,23,13,13,19.90
2006,09,23,13,14,20.00
2006,09,23,13,15,20.10
2006,09,23,13,16,20.20
2006,09,23,13,17,20.20
2006,09,23,13,18,20.30
2006,09,23,13,19,20.40
2006,09,23,13,20,20.50
2006,09,23,13,21,20.50
2006,09,23,13,22,20.40
2006,09,23,13,23,20.50
2006,09,23,13,24,20.60
2006,09,23,13,25,20.80
2006,09,23,13,26,20.80
2006,09,23,13,27,20.60
2006,09,23,13,28,20.60
2006,09,23,13,29,20.50
2006,09,23,13,30,20.50
2006,09,23,13,31,20.50
2006,09,23,13,32,20.50
2006,09,23,13,33,20.50
2006,09,23,13,34,20.50
2006,09,23,13,35,20.60
2006,09,23,13,36,20.70
2006,09,23,13,37,20.80
2006,09,23,13,38,20.80
2006,09,23,13,39,20.80
2006,09,23,13,40,20.80
2006,09,23,13,41,20.80
2006,09,23,13,42,20.80
2006,09,23,13,43,20.70
2006,09,23,13,44,20.70
2006,09,23,13,45,20.80
2006,09,23,13,46,20.80
2006,09,23,13,47,20.80
2006,09,23,13,48,20.70
2006,09,23,13,49,20.60
2006,09,23,13,50,20.50
2006,09,23,13,51,20.60
2006,09,23,13,52,20.70
2006,09,23,13,53,20.80
2006,09,23,13,54,20.80
2006,09,23,13,55,20.90
2006,09,23,13,56,21.00
2006,09,23,13,57,21.00
2006,09,23,13,58,21.00
2006,09,23,13,59,20.90
2006,09,23,14,00,21.00
2006,09,23,14,01,21.00
2006,09,23,14,02,21.10
2006,09,23,14,03,21.20
2006,09,23,14,04,21.20
2006,09,23,14,05,21.20
2006,09,23,14,06,21.20
2006,09,23,14,07,21.20
2006,09,23,14,08,21.30
2006,09,23,14,09,21.30
2006,09,23,14,10,21.30
2006,09,23,14,11,21.30
2006,09,23,14,12,21.40
2006,09,23,14,13,21.40
2006,09,23,14,14,21.40
2006,09,23,14,15,21.40
2006,09,23,14,16,21.30
2006,09,23,14,17,21.20
2006,09,23,14,18,21.20
2006,09,23,14,19,21.20
2006,09,23,14,20,21.20
2006,09,23,14,21,21.20
2006,09,23,14,22,21.20
2006,09,23,14,23,21.30
2006,09,23,14,24,21.30
2006,09,23,14,25,21.40
2006,09,23,14,26,21.40
2006,09,23,14,27,21.50
2006,09,23,14,28,21.60
2006,09,23,14,29,21.60
2006,09,23,14,30,21.60
2006,09,23,14,31,21.60
2006,09,23,14,32,21.60
2006,09,23,14,33,21.60
2006,09,23,14,34,21.60
2006,09,23,14,35,21.60
2006,09,23,14,36,21.50
2006,09,23,14,37,21.40
2006,09,23,14,38,21.30
2006,09,23,14,39,21.30
2006,09,23,14,40,21.30
2006,09,23,14,41,21.30
2006,09,23,14,42,21.30
2006,09,23,14,43,21.30
2006,09,23,14,44,21.30
2006,09,23,14,45,21.30
2006,09,23,14,46,21.40
2006,09,23,14,47,21.40
2006,09,23,14,48,21.40
2006,09,23,14,49,21.50
2006,09,23,14,50,21.60
2006,09,23,14,51,21.60
2006,09,23,14,52,21.70
2006,09,23,14,53,21.70
2006,09,23,14,54,21.70
2006,09,23,14,55,21.70
2006,09,23,14,56,21.70
2006,09,23,14,57,21.70
2006,09,23,14,58,21.70
2006,09,23,14,59,21.60
2006,09,23,15,00,21.40
2006,09,23,15,01,21.30
2006,09,23,15,02,21.30
2006,09,23,15,03,21.40
2006,09,23,15,04,21.40
2006,09,23,15,05,21.50
2006,09,23,15,06,21.60
2006,09,23,15,07,21.60
2006,09,23,15,08,21.60
2006,09,23,15,09,21.60
2006,09,23,15,10,21.60
2006,09,23,15,11,21.60
2006,09,23,15,12,21.60
2006,09,23,15,13,21.60
2006,09,23,15,14,21.60
2006,09,23,15,15,21.60
2006,09,23,15,16,21.60
2006,09,23,15,17,21.60
2006,09,23,15,18,21.70
2006,09,23,15,19,21.70
2006,09,23,15,20,21.70
2006,09,23,15,21,21.70
2006,09,23,15,22,21.70
2006,09,23,15,23,21.60
2006,09,23,15,24,21.60
2006,09,23,15,25,21.60
2006,09,23,15,26,21.60
2006,09,23,15,27,21.60
2006,09,23,15,28,21.70
2006,09,23,15,29,21.80
2006,09,23,15,30,21.90
2006,09,23,15,31,22.00
2006,09,23,15,32,22.00
2006,09,23,15,33,22.00
2006,09,23,15,34,21.90
2006,09,23,15,35,21.80
2006,09,23,15,36,21.70
2006,09,23,15,37,21.60
2006,09,23,15,38,21.60
2006,09,23,15,39,21.60
2006,09,23,15,40,21.60
2006,09,23,15,41,21.60
2006,09,23,15,42,21.60
2006,09,23,15,43,21.50
2006,09,23,15,44,21.40
2006,09,23,15,45,21.40
2006,09,23,15,46,21.40
2006,09,23,15,47,21.50
2006,09,23,15,48,21.60
2006,09,23,15,49,21.60
2006,09,23,15,50,21.60
2006,09,23,15,51,21.70
2006,09,23,15,52,21.70
2006,09,23,15,53,21.70
2006,09,23,15,54,21.70
2006,09,23,15,55,21.70
2006,09,23,15,56,21.70
2006,09,23,15,57,21.70
2006,09,23,15,58,21.70
2006,09,23,15,59,21.60
2006,09,23,16,00,21.60
2006,09,23,16,01,21.50
2006,09,23,16,02,21.40
2006,09,23,16,03,21.40
2006,09,23,16,04,21.40
2006,09,23,16,05,21.40
2006,09,23,16,06,21.50
2006,09,23,16,07,21.60
2006,09,23,16,08,21.60
2006,09,23,16,09,21.60
2006,09,23,16,10,21.70
2006,09,23,16,11,21.70
2006,09,23,16,12,21.80
2006,09,23,16,13,21.90
2006,09,23,16,14,21.90
2006,09,23,16,15,21.70
2006,09,23,16,16,21.70
2006,09,23,16,17,21.70
2006,09,23,16,18,21.70
2006,09,23,16,19,21.70
2006,09,23,16,20,21.60
2006,09,23,16,21,21.60
2006,09,23,16,22,21.60
2006,09,23,16,23,21.60
2006,09,23,16,24,21.60
2006,09,23,16,25,21.60
2006,09,23,16,26,21.60
2006,09,23,16,27,21.60
2006,09,23,16,28,21.60
2006,09,23,16,29,21.60
2006,09,23,16,30,21.60
2006,09,23,16,31,21.60
2006,09,23,16,32,21.70
2006,09,23,16,33,21.70
2006,09,23,16,34,21.70
2006,09,23,16,35,21.70
2006,09,23,16,36,21.70
2006,09,23,16,37,21.70
2006,09,23,16,38,21.60
2006,09,23,16,39,21.50
2006,09,23,16,40,21.40
2006,09,23,16,41,21.40
2006,09,23,16,42,21.40
2006,09,23,16,43,21.40
2006,09,23,16,44,21.40
2006,09,23,16,45,21.30
2006,09,23,16,46,21.00
2006,09,23,16,47,20.90
2006,09,23,16,48,20.90
2006,09,23,16,49,20.90
2006,09,23,16,50,20.90
2006,09,23,16,51,21.00
2006,09,23,16,52,20.90
2006,09,23,16,53,21.00
2006,09,23,16,54,20.90
2006,09,23,16,55,20.90
2006,09,23,16,56,20.90
2006,09,23,16,57,20.90
2006,09,23,16,58,20.90
2006,09,23,16,59,21.00
2006,09,23,17,00,21.00
2006,09,23,17,01,21.00
2006,09,23,17,02,21.10
2006,09,23,17,03,21.20
2006,09,23,17,04,21.30
2006,09,23,17,05,21.30
2006,09,23,17,06,21.40
2006,09,23,17,07,21.40
2006,09,23,17,08,21.40
2006,09,23,17,09,21.40
2006,09,23,17,10,21.50
2006,09,23,17,11,21.60
2006,09,23,17,12,21.60
2006,09,23,17,13,21.60
2006,09,23,17,14,21.60
2006,09,23,17,15,21.60
2006,09,23,17,16,21.60
2006,09,23,17,17,21.60
2006,09,23,17,18,21.60
2006,09,23,17,19,21.60
2006,09,23,17,20,21.60
2006,09,23,17,21,21.60
2006,09,23,17,22,21.60
2006,09,23,17,23,21.60
2006,09,23,17,24,21.60
2006,09,23,17,25,21.60
2006,09,23,17,26,21.60
2006,09,23,17,27,21.60
2006,09,23,17,28,21.60
2006,09,23,17,29,21.60
2006,09,23,17,30,21.50
2006,09,23,17,31,21.40
2006,09,23,17,32,21.30
2006,09,23,17,33,21.20
2006,09,23,17,34,21.00
2006,09,23,17,35,21.00
2006,09,23,17,36,20.90
2006,09,23,17,37,20.90
2006,09,23,17,38,21.00
2006,09,23,17,39,21.00
2006,09,23,17,40,21.10
2006,09,23,17,41,21.20